World > North America > United States > Mississippi > Etta  

Etta, MS Hourly Weather Updates

Feedback E-mail the Weather

Quick Clicks

Etta, MS Weather Maps

°F °C°F °C
Etta Weather Map
UTC Time: 6/22/2024, 13:36
Your Time:

Etta, MS Regional Weather

Expires:202406221400;;466188
ASUS44 KJAN 221310
RWRMS 

MISSISSIPPI HOURLY WEATHER ROUNDUP
NATIONAL WEATHER SERVICE JACKSON MS
800 AM CDT SAT JUN 22 2024

NOTE: "FAIR: INDICATES FEW OR NO CLOUDS BELOW 12,000 FEET WITH NO
SIGNIFICANT WEATHER AND/OR OBSTRUCTIONS TO VISIBILITY.


MSZ003>006-009-014>017-022>024-029>033-037>039-221400-
NORTHEAST MISSISSIPPI
  
CITY           SKY/WX    TMP DP  RH WIND       PRES   REMARKS
ABERDEEN       MOSUNNY   75  73  94 CALM      30.13S                  
COLUMBUS AFB   MOSUNNY   79  69  72 CALM      30.07F                  
CORINTH        SUNNY     77  73  88 CALM      30.11F                  
GOLDN TRIANGLE SUNNY     76  72  87 CALM      30.12S                  
IUKA           SUNNY     79  74  85 CALM      30.13S                  
LOUISVILLE     MOSUNNY   81  68  65 CALM      30.15S                  
STARKVILLE     SUNNY     77  72  83 NW3       30.10S                  
TUPELO         SUNNY     82  72  71 CALM      30.11S                  
$$


SKY/WX - Weather  TMP - Temperature  DP - Dew Point  RH - Humidity
WIND - Wind Direction/Speed PRES - Barometric Pressure VSB - Visibility
WCI - Wind Chill Index E13G22 Wind - East Wind 13 mph/Gusts of 22 mph

Trending Headlines

Trending Entertainment Headlines

Etta Radar Loop

Use the map search tool if you want to place a location marker on the radar map...

Etta Quick Facts

National Two Day Weather Forecast


E-mail the Etta Weather Forecast

Voice your opinion or tell us about page issues...